EW7698 Weather Reports


time (UTC)temp
F
wind
direction
speed
knots
gust
knots
rain 1hr
in
rain 24hr
in
rain mn
in
humidity
%
barometer
mb
20260510060810 70 238 0.0 0.0 0.00 0.01 0.00 86 1013.5
20260510060316 71 223 0.0 0.0 0.00 0.01 0.00 86 1013.5
20260510060041 70 223 0.0 0.0 0.00 0.01 0.00 86 1013.4
20260510060027 70 224 0.0 0.0 0.00 0.01 0.00 85 1013.7
20260510055824 71 223 0.0 0.0 0.00 0.01 0.00 86 1013.5
20260510055310 71 209 0.0 0.9 0.00 0.01 0.00 86 1013.5
20260510054814 71 209 0.0 0.9 0.00 0.01 0.00 86 1013.7
20260510054537 70 146 0.0 0.0 0.00 0.01 0.00 86 1013.7
20260510054513 70 59 0.0 0.0 0.00 0.01 0.00 85 1014.0
20260510054341 71 64 0.0 0.0 0.00 0.01 0.00 86 1013.8
20260510053848 71 64 0.0 0.0 0.00 0.01 0.00 86 1013.9
20260510053314 71 64 0.0 0.9 0.00 0.01 0.00 86 1013.8
20260510053017 70 64 0.0 0.9 0.00 0.01 0.00 86 1013.7
20260510053015 70 59 0.0 0.9 0.00 0.01 0.00 85 1014.2
20260510052823 71 64 0.0 0.9 0.00 0.01 0.00 86 1013.9
20260510052346 71 64 0.0 0.0 0.00 0.01 0.00 86 1014.0
20260510051833 71 64 0.0 0.0 0.00 0.01 0.00 86 1013.9
20260510051525 70 64 0.0 0.0 0.00 0.01 0.00 86 1013.9
20260510051503 70 59 0.0 0.0 0.00 0.01 0.00 85 1014.2
20260510051340 71 64 0.0 0.0 0.00 0.01 0.00 86 1013.9
20260510050827 71 64 0.0 0.0 0.00 0.01 0.00 86 1013.9
20260510050315 71 64 0.0 0.0 0.00 0.01 0.00 86 1014.0
20260510050016 70 64 0.0 0.0 0.00 0.01 0.00 86 1014.0
20260510050005 70 59 0.0 0.0 0.00 0.01 0.00 85 1014.2
20260510045816 71 64 0.0 0.0 0.00 0.01 0.00 86 1014.0
20260510045342 71 64 0.0 0.0 0.00 0.03 0.00 86 1014.0
20260510044809 71 64 0.0 0.0 0.00 0.03 0.00 86 1014.0
20260510044559 70 64 0.0 0.0 0.00 0.03 0.00 86 1013.9
20260510044507 70 64 0.0 0.0 0.00 0.03 0.00 86 1013.9
20260510044504 70 59 0.0 0.0 0.00 0.01 0.00 85 1014.2
20260510044314 71 64 0.0 0.0 0.00 0.03 0.00 86 1014.0
20260510043821 71 64 0.0 0.0 0.00 0.03 0.00 86 1013.9
20260510043308 71 64 0.0 0.0 0.00 0.03 0.00 86 1013.8
20260510043005 71 2 0.0 0.0 0.00 0.01 0.00 85 1014.1
20260510042816 71 9 0.0 0.0 0.00 0.03 0.00 86 1013.7
20260510042322 71 32 0.0 0.0 0.00 0.03 0.00 86 1013.7
20260510041810 71 32 0.0 0.0 0.00 0.03 0.00 86 1013.7
20260510041515 71 286 0.0 0.0 0.00 0.03 0.00 86 1013.6
20260510041507 71 290 0.0 0.0 0.00 0.02 0.00 85 1013.9
20260510041316 71 286 0.0 0.0 0.00 0.03 0.00 86 1013.6
20260510040843 71 286 0.0 0.0 0.00 0.03 0.00 86 1013.5
20260510040308 71 283 0.0 0.0 0.00 0.03 0.00 86 1013.5
20260510040049 71 283 0.0 0.0 0.00 0.03 0.00 86 1013.4
20260510040007 71 287 0.0 0.0 0.00 0.03 0.00 85 1013.7
20260510035811 71 283 0.0 0.0 0.00 0.03 0.00 86 1013.5
20260510035313 71 283 0.0 0.0 0.00 0.08 0.03 85 1013.4
20260510034817 71 283 0.0 0.0 0.00 0.08 0.03 85 1013.4
20260510034528 71 283 0.0 0.0 0.00 0.08 0.03 85 1013.3
20260510034504 71 287 0.0 0.0 0.00 0.05 0.03 85 1013.6
20260510034318 71 283 0.0 0.0 0.00 0.08 0.03 85 1013.2
20260510033818 71 283 0.0 0.0 0.00 0.08 0.03 85 1013.2
20260510033341 71 283 0.0 0.0 0.00 0.08 0.03 85 1013.4
20260510033057 71 283 0.0 0.0 0.00 0.08 0.03 85 1013.3
20260510033004 71 287 0.0 0.0 0.00 0.06 0.03 85 1013.6
20260510032825 71 283 0.0 0.0 0.00 0.08 0.03 85 1013.3
20260510032308 71 283 0.0 0.0 0.00 0.08 0.03 85 1013.3
20260510031812 71 283 0.0 0.0 0.00 0.08 0.03 85 1013.3
20260510031539 71 283 0.0 0.0 0.00 0.08 0.03 85 1013.3
20260510031509 71 287 0.0 0.0 0.00 0.07 0.03 85 1013.6
20260510031315 71 283 0.0 0.0 0.00 0.08 0.03 85 1013.4
20260510030838 71 283 0.0 0.0 0.00 0.08 0.03 85 1013.3
20260510030321 71 283 0.0 0.9 0.00 0.08 0.03 85 1013.2
20260510030055 71 283 0.0 0.9 0.00 0.08 0.03 85 1013.0
20260510030004 71 287 0.0 0.9 0.00 0.08 0.03 84 1013.4
20260510025825 71 280 0.0 0.9 0.00 0.08 0.03 85 1013.1
20260510025347 71 67 0.0 0.9 0.00 0.08 0.03 85 1013.3
20260510024809 71 248 0.0 0.0 0.00 0.08 0.03 85 1013.3
20260510024519 71 248 0.0 0.0 0.00 0.08 0.03 84 1013.2
20260510024506 71 251 0.0 0.0 0.00 0.08 0.03 84 1013.5
20260510024312 71 248 0.0 0.0 0.00 0.08 0.03 84 1013.2
20260510023815 71 248 0.0 0.0 0.00 0.08 0.03 84 1013.4
20260510023319 71 248 0.0 0.0 0.00 0.08 0.03 84 1013.4
20260510023007 71 248 0.0 0.0 0.00 0.08 0.03 84 1013.3
20260510022824 71 248 0.0 0.0 0.00 0.08 0.03 84 1013.2
20260510022327 71 248 0.0 0.0 0.00 0.08 0.03 84 1013.2
20260510021831 71 248 0.0 0.0 0.00 0.08 0.03 84 1013.0
20260510021529 71 248 0.0 0.0 0.00 0.08 0.03 84 1013.0
20260510021520 71 251 0.0 0.0 0.00 0.08 0.03 83 1013.3
20260510021333 71 248 0.0 0.0 0.00 0.08 0.03 84 1013.1
20260510020815 71 248 0.0 0.0 0.00 0.08 0.03 84 1013.0
20260510020336 71 248 0.0 0.0 0.00 0.08 0.03 84 1013.0
20260510020021 71 248 0.0 0.0 0.00 0.08 0.03 84 1013.0
20260510020006 71 251 0.0 0.0 0.00 0.08 0.03 83 1013.3
20260510015819 71 233 0.0 0.0 0.00 0.08 0.03 84 1013.0
20260510015322 71 234 0.0 0.0 0.00 0.08 0.03 83 1013.0
20260510014841 71 234 0.0 0.0 0.00 0.08 0.03 83 1012.8
20260510014545 71 234 0.0 0.0 0.00 0.08 0.03 83 1012.7
20260510014507 71 236 0.0 0.0 0.00 0.08 0.03 83 1013.0
20260510014323 71 234 0.0 0.0 0.00 0.08 0.03 83 1012.8
20260510013810 71 234 0.0 0.0 0.00 0.08 0.03 83 1012.8
20260510013310 71 234 0.0 0.9 0.00 0.08 0.03 84 1012.9
20260510013029 71 233 0.0 0.9 0.00 0.08 0.03 84 1012.9
20260510013006 71 235 0.0 0.9 0.00 0.08 0.03 83 1013.2
20260510012811 72 233 0.0 0.9 0.00 0.08 0.03 84 1012.9
20260510012313 72 291 0.0 0.9 0.00 0.08 0.03 84 1012.8
20260510011817 72 5 0.0 0.9 0.00 0.08 0.03 84 1012.7
20260510011513 71 5 0.0 0.9 0.00 0.08 0.03 84 1012.7
20260510011508 71 1 0.0 0.9 0.00 0.08 0.03 83 1013.0
20260510011321 72 215 0.0 0.0 0.00 0.08 0.03 84 1012.7
20260510010822 72 73 0.0 1.7 0.00 0.08 0.03 84 1012.7
20260510010326 72 73 0.0 1.7 0.00 0.08 0.03 83 1012.6
20260510010057 71 73 0.0 1.7 0.00 0.08 0.03 83 1012.4
20260510010008 71 286 0.0 0.0 0.00 0.08 0.03 83 1012.7
20260510005811 72 281 0.0 0.0 0.00 0.08 0.03 83 1012.4
20260510005314 72 281 0.0 0.0 0.00 0.08 0.03 83 1012.5
20260510004817 72 281 0.0 0.0 0.00 0.08 0.03 83 1012.3
20260510004539 71 281 0.0 0.0 0.00 0.08 0.03 83 1012.4
20260510004508 71 285 0.0 0.0 0.00 0.08 0.03 83 1012.7
20260510004341 72 281 0.0 0.0 0.00 0.08 0.03 83 1012.5
20260510003823 72 279 0.0 0.0 0.00 0.08 0.03 83 1012.4
20260510003327 72 355 0.0 0.0 0.00 0.08 0.03 83 1012.3
20260510003008 72 359 0.0 0.0 0.00 0.08 0.03 83 1012.4
20260510002848 72 355 0.0 0.0 0.00 0.08 0.03 83 1012.1
20260510002348 72 355 0.0 0.0 0.00 0.08 0.03 83 1012.1
20260510001810 72 355 0.0 0.0 0.00 0.08 0.03 83 1012.2
20260510001602 72 53 0.0 0.0 0.00 0.08 0.03 83 1012.1
20260510001509 72 47 0.0 0.0 0.00 0.08 0.03 82 1012.4
20260510001502 72 53 0.0 0.0 0.00 0.08 0.03 83 1012.1
20260510001314 72 53 0.0 0.0 0.00 0.08 0.03 83 1012.1
20260510000818 72 53 0.0 0.0 0.00 0.08 0.03 83 1012.1
20260510000322 72 53 0.0 0.9 0.00 0.08 0.03 83 1012.0
20260510000048 72 53 0.0 0.9 0.00 0.08 0.03 83 1012.0
20260510000005 72 47 0.0 1.7 0.00 0.08 0.03 82 1012.3
20260509235810 72 36 0.0 1.7 0.00 0.08 0.03 82 1011.9
20260509235313 72 36 0.0 1.7 0.00 0.08 0.03 82 1011.8
20260509234816 72 37 0.0 0.9 0.00 0.08 0.03 82 1011.9
20260509234539 72 37 0.0 0.9 0.00 0.08 0.03 82 1012.0
20260509234508 72 31 0.0 0.9 0.00 0.08 0.03 82 1012.3
20260509234320 72 41 0.0 0.9 0.00 0.08 0.03 82 1012.0
20260509233823 72 53 0.0 1.7 0.00 0.08 0.03 82 1012.0
20260509233326 72 47 0.0 0.0 0.00 0.08 0.03 82 1011.8
20260509233016 72 49 0.0 1.7 0.00 0.08 0.03 82 1011.8
20260509233004 72 44 0.0 1.7 0.00 0.08 0.03 81 1012.2
20260509232810 73 49 0.0 1.7 0.00 0.08 0.03 82 1011.8
20260509232332 73 49 0.0 1.7 0.00 0.08 0.03 82 1011.8
20260509231811 72 20 0.0 0.9 0.00 0.08 0.03 82 1011.7
20260509231530 72 287 0.0 0.9 0.00 0.08 0.03 82 1011.6
20260509231510 72 291 0.0 0.9 0.00 0.08 0.03 81 1011.9
20260509231311 73 284 0.0 0.9 0.00 0.08 0.03 82 1011.6
20260509230815 73 306 0.0 0.0 0.00 0.08 0.03 82 1011.6
20260509230319 73 284 0.0 0.9 0.00 0.08 0.03 82 1011.4
20260509230013 72 5 0.0 0.9 0.00 0.08 0.03 82 1011.4
20260509230009 72 1 0.0 0.9 0.00 0.08 0.03 81 1011.8
20260509225839 73 330 0.0 0.0 0.00 0.08 0.03 82 1011.4
20260509225320 73 330 0.0 0.0 0.00 0.08 0.03 82 1011.5
20260509224808 73 22 0.0 0.9 0.00 0.08 0.03 82 1011.5
20260509224545 72 21 0.0 0.9 0.00 0.08 0.03 82 1011.5
20260509224511 72 14 0.0 0.9 0.00 0.08 0.03 81 1011.9
20260509224312 73 21 0.0 0.9 0.00 0.08 0.03 82 1011.5
20260509223816 73 286 0.0 0.0 0.00 0.08 0.03 82 1011.5
20260509223332 73 286 0.0 0.0 0.00 0.08 0.03 81 1011.7
20260509223059 72 287 0.0 0.0 0.00 0.08 0.03 81 1011.5
20260509223012 72 291 0.0 0.0 0.00 0.08 0.03 81 1011.9
20260509222815 73 287 0.0 0.0 0.00 0.08 0.03 81 1011.6
20260509222336 73 287 0.0 0.0 0.00 0.08 0.03 81 1011.5
20260509221839 73 287 0.0 0.0 0.00 0.08 0.03 81 1011.6
20260509221555 73 288 0.0 2.6 0.00 0.08 0.03 81 1011.6
20260509221508 73 292 0.0 2.6 0.00 0.08 0.03 81 1012.0
20260509221321 73 284 0.0 2.6 0.00 0.08 0.03 81 1011.7
20260509220844 73 266 0.0 0.0 0.00 0.08 0.03 81 1011.6
20260509220327 74 360 0.0 0.0 0.00 0.08 0.03 81 1011.7
20260509220018 73 359 0.0 0.0 0.00 0.08 0.03 81 1012.0
20260509220016 73 355 0.0 0.0 0.00 0.08 0.03 81 1011.7
20260509215831 74 355 0.0 0.0 0.00 0.08 0.03 81 1011.6
20260509215334 74 342 0.0 0.9 0.00 0.08 0.03 81 1011.6
20260509214838 74 17 0.0 0.9 0.00 0.08 0.03 82 1011.7
20260509214541 74 17 0.0 0.9 0.00 0.08 0.03 82 1011.8
20260509214508 74 163 0.0 0.0 0.00 0.08 0.03 81 1012.2
20260509214321 74 180 0.0 0.0 0.00 0.08 0.03 82 1011.8
20260509213823 74 180 0.0 0.0 0.00 0.08 0.03 82 1011.8
20260509213308 74 180 0.0 0.0 0.00 0.08 0.03 81 1012.0
20260509213029 74 180 0.0 0.0 0.00 0.08 0.03 81 1012.0
20260509213023 74 179 0.0 0.0 0.00 0.08 0.03 81 1012.4
20260509212812 74 180 0.0 0.0 0.01 0.08 0.03 81 1012.1
20260509212313 74 180 0.0 0.0 0.01 0.08 0.03 81 1012.2
20260509211817 74 180 0.0 0.0 0.01 0.08 0.03 81 1012.2
20260509211512 74 179 0.0 0.0 0.01 0.08 0.03 81 1012.4
20260509211509 74 180 0.0 0.0 0.01 0.08 0.03 81 1012.1
20260509211320 75 180 0.0 0.0 0.01 0.08 0.03 81 1012.1
20260509210824 75 180 0.0 0.0 0.01 0.08 0.03 81 1011.7
20260509210308 75 180 0.0 0.0 0.01 0.08 0.03 82 1011.8
20260509210100 74 180 0.0 0.0 0.01 0.08 0.03 81 1011.8
20260509210014 74 180 0.0 0.0 0.01 0.08 0.03 81 1012.2
20260509205812 75 180 0.0 0.0 0.01 0.08 0.03 81 1011.9
20260509205334 75 180 0.0 0.0 0.01 0.08 0.03 81 1011.9
20260509204815 75 206 0.0 0.0 0.01 0.08 0.03 81 1011.9
20260509204514 74 206 0.0 0.0 0.01 0.08 0.03 81 1012.0
20260509204320 75 206 0.0 0.0 0.01 0.08 0.03 81 1012.0
20260509203824 75 144 0.0 0.0 0.01 0.08 0.03 81 1011.9
20260509203308 75 217 0.0 0.0 0.01 0.08 0.03 80 1011.9
20260509203117 75 217 0.0 0.0 0.01 0.08 0.03 80 1011.9
20260509203016 75 219 0.0 0.0 0.01 0.08 0.03 80 1012.3
20260509203002 75 217 0.0 0.0 0.01 0.08 0.03 80 1011.9
20260509202812 75 217 0.0 0.0 0.00 0.07 0.02 80 1012.0
20260509202314 76 189 0.0 0.9 0.00 0.07 0.02 80 1011.9
20260509201838 76 189 0.0 0.9 0.00 0.07 0.02 80 1011.8
20260509201520 75 189 0.0 0.9 0.00 0.07 0.02 80 1011.8
20260509201512 75 189 0.0 0.9 0.00 0.07 0.02 79 1012.2
20260509201321 76 189 0.0 0.9 0.00 0.07 0.02 80 1011.8
20260509200826 76 92 0.0 0.9 0.00 0.07 0.02 80 1011.8
20260509200325 76 63 0.0 0.9 0.00 0.07 0.02 80 1011.8
20260509200013 76 276 0.0 0.0 0.00 0.07 0.02 80 1012.2
20260509200006 76 272 0.0 0.0 0.00 0.07 0.02 80 1011.9
20260509195810 77 272 0.0 0.0 0.00 0.07 0.02 80 1011.9
20260509195312 77 272 0.0 0.9 0.00 0.07 0.02 80 1012.1
20260509194815 77 272 0.0 0.9 0.00 0.07 0.02 80 1012.0
20260509194550 76 246 0.0 0.0 0.00 0.07 0.02 80 1012.0
20260509194513 76 248 0.0 0.0 0.00 0.07 0.02 80 1012.4
20260509194318 77 246 0.0 0.0 0.00 0.07 0.02 80 1012.0
20260509193822 77 246 0.0 0.0 0.00 0.07 0.02 80 1011.8
20260509193325 77 246 0.0 0.0 0.00 0.07 0.02 79 1011.6
20260509193039 76 246 0.0 0.0 0.00 0.07 0.02 79 1011.7
20260509193025 77 248 0.0 1.7 0.00 0.07 0.02 79 1012.1
20260509192810 77 246 0.0 1.7 0.00 0.07 0.02 79 1011.8
20260509192312 77 246 0.0 1.7 0.00 0.07 0.02 79 1011.8
20260509191833 77 310 0.0 0.0 0.00 0.07 0.02 78 1011.8
20260509191518 77 315 0.0 1.7 0.00 0.07 0.02 78 1012.1
20260509191510 77 310 0.0 1.7 0.00 0.07 0.02 78 1011.7
20260509191312 77 310 0.0 1.7 0.00 0.07 0.02 78 1011.8
20260509190816 77 280 0.0 3.5 0.00 0.07 0.02 77 1011.7
20260509190339 77 313 0.0 3.5 0.00 0.07 0.02 77 1011.8
20260509190044 77 350 0.0 2.6 0.00 0.07 0.02 77 1011.8
20260509190019 77 356 0.0 2.6 0.00 0.07 0.02 77 1012.1
20260509185823 77 124 0.0 2.6 0.00 0.07 0.02 77 1011.9
20260509185325 77 347 0.0 6.1 0.00 0.07 0.02 77 1011.9
20260509184808 77 67 0.9 6.1 0.00 0.07 0.02 77 1011.8
20260509184556 77 57 0.0 6.1 0.00 0.07 0.02 78 1011.8
20260509184531 77 61 0.0 5.2 0.00 0.07 0.02 77 1012.2
20260509184312 77 277 0.0 1.7 0.00 0.07 0.02 78 1011.8
20260509183814 78 265 0.0 2.6 0.00 0.07 0.02 79 1011.9
20260509183337 78 103 0.0 0.9 0.00 0.07 0.02 80 1011.9
20260509182817 78 46 0.0 0.9 0.00 0.07 0.02 79 1012.0
20260509182320 78 219 0.0 1.7 0.00 0.07 0.02 79 1012.1
20260509181824 78 64 0.0 2.6 0.00 0.07 0.02 79 1012.1
20260509181609 78 76 0.0 3.5 0.00 0.07 0.02 79 1012.1
20260509181518 77 72 0.0 3.5 0.00 0.07 0.02 78 1012.4
20260509181307 78 87 0.9 3.5 0.00 0.07 0.02 79 1012.1
20260509180811 78 241 0.0 3.5 0.00 0.07 0.02 79 1012.2
20260509180315 78 67 0.0 2.6 0.00 0.07 0.02 79 1012.2
20260509180020 78 297 0.0 3.5 0.00 0.07 0.02 78 1012.5
20260509180010 78 292 0.0 2.6 0.00 0.07 0.02 79 1012.2
20260509175820 78 293 0.0 3.5 0.00 0.07 0.02 79 1012.2
20260509175323 78 304 0.0 3.5 0.00 0.07 0.02 78 1012.2
20260509174826 78 234 0.9 6.1 0.00 0.07 0.02 78 1012.2
20260509174529 78 126 0.0 6.1 0.00 0.07 0.02 78 1012.2
20260509174522 78 124 0.0 7.0 0.00 0.07 0.02 77 1012.6
20260509174309 78 105 2.6 7.0 0.00 0.07 0.02 78 1012.2
20260509173812 78 284 0.9 7.0 0.00 0.07 0.02 78 1012.3
20260509173316 78 67 0.9 5.2 0.00 0.07 0.02 78 1012.2
20260509173030 78 237 0.9 5.2 0.00 0.07 0.02 78 1012.2
20260509173019 78 239 0.0 5.2 0.00 0.07 0.02 77 1012.6
20260509172821 78 236 0.9 5.2 0.00 0.07 0.02 78 1012.2
20260509172324 78 277 0.9 6.1 0.00 0.07 0.02 78 1012.3
20260509171809 78 215 0.9 6.1 0.00 0.07 0.02 78 1012.4
20260509171543 78 300 0.0 6.1 0.00 0.07 0.02 78 1012.4
20260509171517 78 237 0.0 6.1 0.00 0.07 0.02 77 1012.8
20260509171313 78 219 1.7 5.2 0.00 0.07 0.02 77 1012.4
20260509170817 79 234 0.9 5.2 0.00 0.07 0.02 77 1012.4
20260509170323 79 226 0.9 5.2 0.00 0.07 0.02 76 1012.4
20260509170050 79 313 0.9 6.1 0.00 0.07 0.02 76 1012.4
20260509170009 79 231 0.9 6.1 0.00 0.07 0.02 75 1012.8
20260509165827 80 225 0.9 6.1 0.00 0.07 0.02 76 1012.4
20260509165310 80 225 0.9 5.2 0.00 0.07 0.02 76 1012.5
20260509164813 80 249 0.0 5.2 0.00 0.07 0.02 75 1012.6
20260509164550 80 261 0.0 5.2 0.00 0.07 0.02 75 1012.5
20260509164504 80 18 0.0 5.2 0.00 0.07 0.02 75 1012.9
20260509164316 81 266 0.0 5.2 0.00 0.07 0.02 75 1012.5
20260509163819 81 264 0.9 5.2 0.00 0.07 0.02 75 1012.6
20260509163322 81 230 0.0 5.2 0.00 0.07 0.02 76 1012.6
20260509163048 80 241 0.9 7.0 0.00 0.07 0.02 76 1012.7
20260509163004 80 306 0.9 7.0 0.00 0.07 0.02 76 1013.1
20260509162847 80 231 0.9 7.0 0.00 0.07 0.02 77 1012.8
20260509162308 80 30 0.0 3.5 0.00 0.07 0.02 77 1012.8
20260509161811 79 253 0.9 7.8 0.00 0.07 0.02 77 1012.8
20260509161520 79 220 0.0 7.8 0.00 0.07 0.02 77 1012.7
20260509161511 79 221 0.0 7.8 0.00 0.07 0.02 77 1013.1
20260509161335 79 89 1.7 7.8 0.00 0.07 0.02 77 1012.8
20260509160818 79 248 0.9 6.1 0.00 0.07 0.02 79 1012.8
20260509160317 78 178 0.9 7.0 0.00 0.07 0.02 78 1012.9
20260509160042 77 247 0.9 7.0 0.00 0.07 0.02 78 1012.8
20260509160013 77 250 1.7 7.0 0.00 0.07 0.02 78 1013.1
20260509155816 78 224 0.9 7.0 0.00 0.07 0.02 79 1012.8
20260509155319 77 266 0.9 4.3 0.00 0.07 0.02 79 1013.0
20260509154822 77 227 0.0 5.2 0.00 0.07 0.02 79 1013.0
20260509154536 77 288 0.0 5.2 0.00 0.07 0.02 79 1013.0
20260509154503 77 359 0.0 5.2 0.00 0.07 0.02 79 1013.4
20260509154342 77 67 0.9 5.2 0.00 0.07 0.02 80 1013.1
20260509153808 77 181 0.0 4.3 0.00 0.07 0.02 80 1013.1
20260509153313 77 242 0.9 3.5 0.00 0.07 0.02 81 1013.2
20260509153012 76 234 0.0 3.5 0.00 0.07 0.02 81 1013.0
20260509153005 76 236 0.0 3.5 0.00 0.07 0.02 80 1013.4
20260509152819 76 269 0.0 3.5 0.00 0.07 0.02 81 1013.0
20260509152325 76 102 0.9 4.3 0.00 0.07 0.02 80 1013.2
20260509151833 76 265 0.9 4.3 0.00 0.07 0.02 80 1013.1
20260509151538 75 36 0.9 4.3 0.00 0.07 0.02 79 1013.1
20260509151506 75 201 0.9 7.0 0.00 0.07 0.02 79 1013.5
20260509151317 76 254 0.9 7.0 0.00 0.07 0.02 79 1013.1
20260509150840 76 248 0.9 7.0 0.00 0.07 0.02 79 1013.2
20260509150310 76 223 0.0 4.3 0.00 0.07 0.02 79 1013.4
20260509150052 75 88 0.0 4.3 0.00 0.07 0.02 79 1013.4
20260509150012 75 245 0.0 7.0 0.00 0.07 0.02 79 1013.8
20260509145818 76 259 0.0 7.0 0.00 0.07 0.02 80 1013.5
20260509145324 76 213 0.9 7.0 0.00 0.07 0.02 79 1013.5
20260509144811 76 55 0.9 4.3 0.00 0.07 0.02 80 1013.4
20260509144540 75 5 0.0 3.5 0.00 0.07 0.02 80 1013.4
20260509144519 75 11 0.0 3.5 0.00 0.07 0.02 80 1013.8
20260509144341 76 84 0.0 3.5 0.00 0.07 0.02 81 1013.5
20260509143828 76 267 0.9 3.5 0.00 0.07 0.02 81 1013.6
20260509143334 76 245 0.0 1.7 0.00 0.07 0.02 83 1013.5
20260509143039 75 244 0.0 2.6 0.00 0.07 0.02 83 1013.5
20260509143007 75 247 0.0 2.6 0.00 0.07 0.02 82 1013.9
20260509142836 75 244 0.0 2.6 0.00 0.07 0.02 83 1013.5
20260509142321 75 244 0.0 2.6 0.00 0.07 0.02 83 1013.5
20260509141813 75 274 0.0 3.5 0.00 0.07 0.02 84 1013.4
20260509141558 75 47 0.0 3.5 0.00 0.07 0.02 85 1013.3
20260509141506 75 35 0.0 3.5 0.00 0.07 0.02 84 1013.6
20260509141321 75 41 0.0 3.5 0.00 0.07 0.02 85 1013.3
20260509140808 75 233 0.0 0.9 0.00 0.07 0.02 86 1013.2
20260509140315 75 233 0.0 3.5 0.00 0.07 0.02 86 1013.1
20260509140046 74 233 0.0 3.5 0.00 0.07 0.02 87 1013.0
20260509140012 74 235 0.0 3.5 0.00 0.07 0.02 86 1013.4
20260509135822 74 233 0.0 3.5 0.00 0.07 0.02 87 1013.1
20260509135328 74 232 0.0 1.7 0.00 0.07 0.02 88 1013.0
20260509134812 74 220 0.0 0.9 0.00 0.07 0.02 88 1013.1
20260509134523 73 230 0.0 0.0 0.00 0.07 0.02 88 1013.0
20260509134514 74 232 0.0 0.9 0.00 0.07 0.02 88 1013.4
20260509134318 74 302 0.0 0.0 0.00 0.07 0.02 88 1013.0
20260509133825 74 302 0.0 0.0 0.00 0.07 0.02 89 1013.1
20260509133311 73 302 0.0 0.0 0.00 0.07 0.02 88 1013.1
20260509133107 73 302 0.0 0.0 0.00 0.07 0.02 89 1013.1
20260509133018 73 309 0.0 0.0 0.00 0.07 0.02 88 1013.4
20260509132818 73 304 0.0 0.0 0.00 0.07 0.02 88 1013.1
20260509132323 73 304 0.0 0.0 0.00 0.07 0.02 88 1013.1
20260509131810 73 304 0.0 0.0 0.00 0.07 0.02 88 1013.1
20260509131544 72 304 0.0 0.0 0.00 0.07 0.02 88 1013.1
20260509131503 72 309 0.0 0.0 0.00 0.07 0.02 88 1013.5
20260509131316 73 304 0.0 0.0 0.00 0.07 0.02 89 1013.2
20260509130825 73 304 0.0 0.0 0.00 0.07 0.02 89 1013.3
20260509130312 73 304 0.0 0.0 0.00 0.07 0.02 89 1013.4
20260509130028 72 304 0.0 0.0 0.00 0.07 0.02 89 1013.5
20260509130011 72 309 0.0 0.0 0.00 0.07 0.02 88 1013.8
20260509125818 73 304 0.0 0.0 0.00 0.07 0.02 89 1013.5
20260509125322 73 304 0.0 0.0 0.00 0.07 0.02 89 1013.4
20260509124828 73 304 0.0 0.9 0.00 0.07 0.02 89 1013.2
20260509124515 72 304 0.0 0.9 0.00 0.07 0.02 89 1013.2
20260509124510 72 309 0.0 0.9 0.00 0.07 0.02 88 1013.5
20260509124335 72 304 0.0 0.9 0.00 0.07 0.02 89 1013.3
20260509123822 72 248 0.0 0.0 0.00 0.07 0.02 89 1013.2
20260509123329 72 248 0.0 0.0 0.00 0.07 0.02 89 1013.1
20260509123034 72 248 0.0 2.6 0.00 0.07 0.02 89 1013.1
20260509123017 72 251 0.0 2.6 0.00 0.07 0.02 88 1013.5
20260509122837 72 248 0.0 2.6 0.00 0.07 0.02 89 1013.1
20260509122320 72 255 0.0 2.6 0.00 0.07 0.02 89 1012.9
20260509121807 72 248 0.0 0.9 0.00 0.07 0.02 89 1012.7
20260509121556 71 247 0.0 1.7 0.00 0.07 0.02 89 1012.6
20260509121524 71 250 0.0 1.7 0.00 0.07 0.02 88 1013.0
20260509121313 72 247 0.0 1.7 0.00 0.07 0.02 89 1012.6
20260509120845 71 247 0.0 1.7 0.00 0.07 0.02 89 1012.7
20260509120313 71 196 0.0 0.9 0.00 0.07 0.02 89 1012.8
20260509120024 71 195 0.0 1.7 0.00 0.07 0.02 89 1012.8
20260509120005 71 196 0.0 1.7 0.00 0.07 0.02 88 1013.2
20260509115818 71 232 0.0 1.7 0.00 0.07 0.02 89 1012.9
20260509115323 71 226 0.0 1.7 0.00 0.07 0.02 89 1012.7
20260509114808 71 257 0.0 2.6 0.00 0.07 0.02 89 1012.9
20260509114508 70 257 0.0 2.6 0.00 0.07 0.02 89 1012.8
20260509114315 71 257 0.0 2.6 0.00 0.07 0.02 89 1012.8
20260509113822 70 254 0.0 0.9 0.00 0.07 0.02 89 1012.6
20260509113330 70 256 0.0 0.0 0.00 0.07 0.02 88 1012.6
20260509113056 70 215 0.0 0.0 0.00 0.07 0.02 88 1012.6
20260509113015 70 217 0.0 0.0 0.00 0.07 0.02 88 1013.0
20260509112838 70 215 0.0 0.0 0.00 0.07 0.02 88 1012.7
20260509112323 70 215 0.0 0.0 0.00 0.07 0.02 88 1012.5
20260509111811 70 215 0.0 0.0 0.00 0.07 0.02 88 1012.4
20260509111520 69 217 0.0 0.0 0.00 0.07 0.02 88 1012.8
20260509111516 69 215 0.0 0.0 0.00 0.07 0.02 88 1012.5
20260509111317 70 215 0.0 0.0 0.00 0.07 0.02 88 1012.5
20260509110825 70 215 0.0 0.0 0.00 0.07 0.02 88 1012.5
20260509110333 70 215 0.0 0.0 0.00 0.07 0.02 88 1012.5
20260509110045 69 215 0.0 0.0 0.00 0.07 0.02 88 1012.4
20260509110023 69 217 0.0 0.0 0.00 0.07 0.02 88 1012.7
20260509105817 70 360 0.0 0.0 0.00 0.07 0.02 88 1012.4
20260509105323 70 360 0.0 0.0 0.00 0.07 0.02 88 1012.3
20260509104810 70 265 0.0 0.0 0.00 0.07 0.02 88 1012.3
20260509104510 69 265 0.0 0.0 0.00 0.07 0.02 89 1012.2
20260509104314 70 265 0.0 0.0 0.00 0.07 0.02 88 1012.2
20260509103821 69 260 0.0 0.0 0.00 0.07 0.02 88 1012.0
20260509103328 69 259 0.0 0.0 0.00 0.07 0.02 88 1011.9
20260509103109 69 259 0.0 0.0 0.00 0.07 0.02 88 1011.8
20260509103012 69 262 0.0 0.0 0.00 0.07 0.02 88 1012.2
20260509102835 69 259 0.0 0.0 0.00 0.07 0.02 88 1012.0
20260509102320 69 259 0.0 0.0 0.00 0.07 0.02 88 1012.0
20260509101806 69 259 0.0 0.0 0.00 0.07 0.02 88 1011.9
20260509101528 68 259 0.0 0.0 0.00 0.07 0.02 88 1011.8
20260509101523 68 262 0.0 0.0 0.00 0.07 0.02 88 1012.1
20260509101314 68 259 0.0 0.0 0.00 0.07 0.02 88 1011.8
20260509100822 68 260 0.0 0.0 0.00 0.07 0.02 88 1011.8
20260509100309 68 260 0.0 0.0 0.00 0.07 0.02 88 1011.7
20260509100026 67 263 0.0 0.0 0.00 0.07 0.02 87 1011.9
20260509100008 67 260 0.0 0.0 0.00 0.07 0.02 88 1011.7
20260509095817 67 260 0.0 0.0 0.00 0.07 0.02 87 1011.7
20260509095324 67 260 0.0 0.0 0.00 0.07 0.02 87 1011.9
20260509094811 68 260 0.0 0.0 0.00 0.07 0.02 87 1011.8
20260509094552 67 260 0.0 0.0 0.00 0.07 0.02 87 1011.7
20260509094525 67 263 0.0 0.0 0.00 0.07 0.02 87 1012.1
20260509094319 68 260 0.0 0.0 0.00 0.07 0.02 87 1011.8
20260509093851 68 260 0.0 0.0 0.00 0.07 0.02 87 1011.8
20260509093338 68 260 0.0 0.0 0.00 0.07 0.02 87 1011.8
20260509093059 67 260 0.0 0.0 0.00 0.07 0.02 87 1011.6
20260509093010 67 263 0.0 0.0 0.00 0.07 0.02 87 1012.0
20260509092825 68 260 0.0 0.0 0.00 0.07 0.02 87 1011.7
20260509092312 68 260 0.0 0.0 0.00 0.07 0.02 87 1011.9
20260509091844 68 260 0.0 0.0 0.00 0.07 0.02 87 1012.0
20260509091524 67 260 0.0 0.0 0.00 0.07 0.02 87 1012.0
20260509091513 67 263 0.0 0.0 0.00 0.07 0.02 87 1012.3
20260509091331 68 260 0.0 0.0 0.00 0.07 0.02 87 1012.0
20260509090818 68 260 0.0 0.0 0.00 0.07 0.02 87 1011.7
20260509090306 68 260 0.0 0.0 0.00 0.07 0.02 87 1011.8
20260509090055 67 260 0.0 0.0 0.00 0.07 0.02 87 1012.0
20260509090032 67 263 0.0 0.0 0.00 0.07 0.02 87 1012.4
20260509085814 68 260 0.0 0.0 0.00 0.07 0.02 87 1012.0
20260509085320 68 260 0.0 0.0 0.00 0.07 0.02 87 1012.4
20260509084819 68 260 0.0 0.0 0.00 0.07 0.02 87 1012.8
20260509084526 67 260 0.0 0.0 0.00 0.07 0.02 87 1012.5
20260509084306 68 260 0.0 0.0 0.00 0.07 0.02 87 1012.2
20260509083813 68 260 0.0 0.0 0.00 0.07 0.02 87 1012.1
20260509083321 68 260 0.0 0.0 0.00 0.07 0.02 87 1012.0
20260509083035 67 263 0.0 0.0 0.00 0.07 0.02 87 1012.2
20260509083009 67 260 0.0 0.0 0.00 0.07 0.02 87 1011.9
20260509082813 68 260 0.0 0.0 0.00 0.07 0.02 87 1012.0
20260509082319 68 260 0.0 0.0 0.00 0.07 0.02 87 1011.8
20260509081807 68 260 0.0 0.0 0.00 0.07 0.02 87 1011.6
20260509081556 67 260 0.0 0.0 0.00 0.07 0.02 87 1011.7
20260509081511 67 263 0.0 0.0 0.00 0.07 0.02 87 1012.1
20260509081312 68 260 0.0 0.0 0.00 0.07 0.02 87 1012.0
20260509080844 68 260 0.0 0.0 0.00 0.07 0.02 87 1012.4
20260509080311 68 260 0.0 0.0 0.00 0.07 0.02 87 1012.5
20260509080021 68 260 0.0 0.0 0.00 0.07 0.02 87 1012.6
20260509080014 68 263 0.0 0.0 0.00 0.07 0.02 87 1012.9
20260509075820 68 260 0.0 0.0 0.00 0.07 0.02 87 1012.7
20260509075318 68 260 0.0 0.0 0.00 0.07 0.02 87 1012.8
20260509074806 68 260 0.0 0.0 0.00 0.07 0.02 87 1012.5
20260509074521 68 263 0.0 0.0 0.00 0.07 0.02 87 1012.8
20260509074504 68 260 0.0 0.0 0.00 0.07 0.02 87 1012.5
20260509074314 68 260 0.0 0.0 0.00 0.07 0.02 87 1012.5
20260509073822 68 260 0.0 0.0 0.00 0.07 0.02 87 1012.3
20260509073309 68 260 0.0 0.0 0.00 0.07 0.02 87 1012.3
20260509073052 67 260 0.0 0.0 0.00 0.07 0.02 87 1012.4
20260509073030 67 263 0.0 0.0 0.00 0.07 0.02 86 1012.8
20260509072817 68 260 0.0 0.0 0.00 0.07 0.02 87 1012.6
20260509072324 67 260 0.0 0.9 0.00 0.07 0.02 87 1012.5
20260509071812 67 260 0.0 0.9 0.00 0.07 0.02 87 1012.2
20260509071547 67 202 0.0 0.9 0.00 0.07 0.02 86 1012.0
20260509071534 67 310 0.0 0.0 0.00 0.07 0.02 86 1012.3
20260509071319 67 305 0.0 0.0 0.00 0.07 0.02 86 1012.0
20260509070825 67 307 0.0 0.0 0.00 0.07 0.02 86 1012.3
20260509070311 67 307 0.0 0.0 0.00 0.07 0.02 86 1012.3
20260509070038 66 307 0.0 0.0 0.00 0.07 0.02 86 1012.4
20260509070012 66 312 0.0 0.0 0.00 0.07 0.02 86 1012.8
20260509065844 67 307 0.0 0.0 0.00 0.07 0.02 86 1012.5
20260509065309 67 307 0.0 0.0 0.00 0.07 0.02 86 1012.5
20260509064816 67 307 0.0 0.0 0.00 0.07 0.02 86 1012.7
20260509064547 67 307 0.0 0.0 0.00 0.07 0.02 86 1012.8
20260509064502 67 312 0.0 0.0 0.00 0.07 0.02 86 1013.2
20260509064321 67 307 0.0 0.0 0.00 0.07 0.02 86 1012.9
20260509063828 67 307 0.0 0.0 0.00 0.07 0.02 86 1013.0
20260509063315 67 307 0.0 0.0 0.00 0.07 0.02 86 1013.2
20260509063016 67 307 0.0 0.0 0.00 0.07 0.02 86 1013.2
20260509063004 67 312 0.0 0.0 0.00 0.07 0.02 85 1013.5
20260509062824 67 307 0.0 0.0 0.00 0.07 0.02 86 1013.2
20260509062331 67 307 0.0 0.0 0.00 0.07 0.02 86 1013.2
20260509061844 67 307 0.0 0.0 0.00 0.07 0.02 86 1013.2
20260509061511 67 307 0.0 0.0 0.00 0.07 0.02 86 1013.0
20260509061507 67 312 0.0 0.0 0.00 0.07 0.02 85 1013.2
20260509061310 67 307 0.0 0.0 0.00 0.07 0.02 86 1012.9